This is the latest recevied weather packets stored in our database for station/object PU5BHV. If no packets are shown the sender has not sent any weather packets the latest 10 day(s).
| Time | Temp. | Humidity | Pressure | Rain* | Wind** | Luminosity | Snow |
|---|---|---|---|---|---|---|---|
| 1777982008 | 21.67° C | 81% | 1021 hPa | 0 mm | - | 267 W/m² | - |
| 1777981706 | 21.11° C | 83% | 1021 hPa | 0 mm | - | 227 W/m² | - |
| 1777981402 | 20.56° C | 86% | 1021.3 hPa | 0 mm | - | 253 W/m² | - |
| 1777981099 | 20° C | 88% | 1021.1 hPa | 0 mm | - | 106 W/m² | - |
| 1777980795 | 20.56° C | 87% | 1020.9 hPa | 0 mm | - | 120 W/m² | - |
| 1777980491 | 20° C | 88% | 1020.8 hPa | 0 mm | - | 103 W/m² | - |
| 1777980189 | 20° C | 88% | 1020.8 hPa | 0 mm | - | 110 W/m² | - |
| 1777979884 | 20.56° C | 87% | 1021 hPa | 0 mm | - | 103 W/m² | - |
| 1777979580 | 20.56° C | 87% | 1020.9 hPa | 0 mm | - | 104 W/m² | - |
| 1777979276 | 20.56° C | 89% | 1020.8 hPa | 0 mm | - | 127 W/m² | - |
| 1777978974 | 19.44° C | 92% | 1020.6 hPa | 0 mm | - | 107 W/m² | - |
| 1777978670 | 18.89° C | 96% | 1020.8 hPa | 0 mm | - | 101 W/m² | - |
| 1777978366 | 18.33° C | 99% | 1020.8 hPa | 0 mm | - | 76 W/m² | - |
| 1777978063 | 17.78° C | 99% | 1020.7 hPa | 0 mm | - | 79 W/m² | - |
| 1777977760 | 17.78° C | 99% | 1020.7 hPa | 0 mm | - | 58 W/m² | - |
| 1777977456 | 17.78° C | 99% | 1020.7 hPa | 0 mm | - | 53 W/m² | - |
| 1777977154 | 17.22° C | 99% | 1020.4 hPa | 0 mm | - | 47 W/m² | - |
| 1777976851 | 17.22° C | 99% | 1020.3 hPa | 0 mm | - | 38 W/m² | - |
| 1777976549 | 17.22° C | 99% | 1020.2 hPa | 0 mm | - | 29 W/m² | - |
| 1777976248 | 16.67° C | 99% | 1020.4 hPa | 0 mm | - | 24 W/m² | - |
| 1777975944 | 16.67° C | 99% | 1020.3 hPa | 0 mm | - | 21 W/m² | - |
| 1777975640 | 16.67° C | 99% | 1020.1 hPa | 0 mm | - | 16 W/m² | - |
| 1777975337 | 16.67° C | 99% | 1020.2 hPa | 0 mm | - | 12 W/m² | - |
| 1777975032 | 16.67° C | 99% | 1020.3 hPa | 0 mm | - | 7 W/m² | - |
| 1777974731 | 16.67° C | 99% | 1020.1 hPa | 0 mm | - | 4 W/m² | - |
* Rain latest hour (hover to see other rain measurements)
** Current wind speed in m/s (hover to see current wind gust speed)